Location: Cutler
(25.6150°N, 80.3110°W)
Time: 06:31:16
(UTC-04:00)

Tiangong 2 - Visible Passes

Search period start: 23 June 2018 00:00
Search period end: 03 July 2018 00:00
Orbit: 291 x 296 km, 42.8° (Epoch: 21 June)

Date Brightness Start Highest point End Pass type
(mag) Time Alt. Az. Time Alt. Az. Time Alt. Az.
23 Jun 1.8 05:59:28 10° W 06:01:48 31° NNW 06:04:08 10° NNE visible
24 Jun 3.5 04:34:40 16° E 04:34:40 16° E 04:35:26 10° ENE visible
24 Jun 3.1 06:06:22 10° WNW 06:07:52 14° NNW 06:09:21 10° N visible
25 Jun 2.9 04:40:15 25° NE 04:40:15 25° NE 04:41:30 10° NE visible
26 Jun 2.9 04:45:41 20° N 04:45:41 20° N 04:47:00 10° NNE visible
27 Jun 3.5 04:51:00 12° NNW 04:51:00 12° NNW 04:51:47 10° N visible
